SCP
1 1 1 1 1 1 1 1 1 1 1 1 1 1 1 1 1 1 1 0 0 0 0 1 1 1 1 0 0 0 0 0 0 0 0 0 0 0 1 1 1 0 0
1 1 1 2 1 1 1 1 1 1 2 2 2 2 1 1 1 1 1 0 0 0 1 1 1 1 1 1 1 0 0 0 0 0 1 1 0 0 0 0 1 1 1
1 1 2 2 2 2 2 2 2 2 2 2 2 2 2 2 2 1 1 1 1 1 1 1 1 1 1 1 1 1 0 0 0 1 1 1 1 0 0 1 1 1 1
1 2 2 2 3 2 2 2 2 2 3 2 2 2 2 2 2 2 1 1 1 1 1 1 1 1 1 1 1 1 1 1 1 1 1 1 1 1 1 1 1 1 1
2 2 2 2 2 2 2 2 2 2 3 3 3 3 3 3 3 2 2 2 2 1 1 1 1 1 1 1 1 1 1 1 1 1 1 1 1 1 1 1 1 1 1
2 2 2 2 2 2 2 2 2 2 2 2 3 3 3 3 3 3 3 2 2 2 2 1 1 1 1 1 1 1 1 1 1 1 1 2 2 1 1 1 1 1 1
2 2 2 2 2 2 2 2 1 1 1 2 2 2 2 2 2 2 2 3 3 3 2 2 2 2 1 1 1 1 1 1 1 2 2 2 2 2 2 2 1 1 1
3 3 2 2 2 3 3 3 2 2 2 2 1 1 1 1 1 1 2 2 3 3 3 3 2 2 2 2 2 2 1 1 1 1 2 2 2 2 2 2 2 2 2
3 2 2 2 2 3 3 4 4 3 3 2 1 1 1 1 1 1 2 2 3 3 2 2 2 2 2 2 2 2 2 1 1 1 2 2 2 2 2 2 2 2 2
2 2 2 3 3 4 5 6 6 4 3 2 1 1 1 1 1 2 2 3 3 2 2 1 1 2 2 2 2 2 2 2 1 1 2 2 2 2 2 2 2 2 2
4 5 5 5 5 6 6 7 6 5 3 2 2 1 1 1 2 2 2 3 2 2 1 1 1 2 2 2 2 2 2 2 1 1 1 1 2 2 2 2 2 2 2
7 9 10 10 8 7 6 6 5 4 4 3 3 2 1 1 2 2 3 3 2 2 1 1 2 2 3 2 2 2 2 2 1 1 1 2 2 2 2 2 2 3 3
8 9 11 11 8 6 5 4 3 4 4 4 3 3 2 2 2 2 2 2 2 2 2 2 2 3 3 2 2 2 2 2 2 2 2 2 2 2 2 2 3 3 3
5 6 7 7 6 5 4 3 3 3 4 4 4 3 2 2 2 2 2 3 3 3 3 3 3 3 2 2 2 2 2 2 2 2 2 3 3 3 3 3 3 3 3
3 3 3 3 3 3 3 3 3 3 4 4 4 3 2 2 2 3 3 4 5 5 5 4 4 3 2 1 1 2 2 3 3 2 2 2 2 2 2 2 3 3 3
2 2 2 2 2 2 2 3 4 4 4 4 3 3 2 2 3 3 4 5 7 7 7 5 3 2 2 1 1 1 2 2 2 2 2 2 2 2 2 2 2 2 2
2 2 2 2 2 2 2 3 4 4 4 3 3 2 3 3 4 4 5 6 8 8 7 5 3 2 1 1 1 1 1 1 2 2 2 2 2 2 2 2 1 1 1
2 2 2 2 2 2 3 4 5 4 4 3 3 3 3 4 5 5 6 6 7 7 5 3 2 1 1 1 0 0 1 1 1 1 1 2 2 2 2 2 2 2 2
2 2 3 2 2 3 5 6 5 4 4 3 3 3 3 4 5 5 5 4 4 3 3 2 1 1 1 1 0 0 1 1 1 1 1 1 2 1 1 2 2 2 2
3 3 3 3 3 5 7 8 6 5 4 3 3 3 3 3 4 3 3 2 2 2 1 1 1 1 1 1 0 0 1 2 1 1 1 1 1 1 1 1 2 2 2
3 3 3 3 4 7 9 9 6 5 4 4 3 3 2 3 3 2 1 1 1 2 2 2 1 1 1 1 0 0 1 1 1 1 0 0 0 0 0 0 1 1 1
3 3 3 3 6 10 12 10 7 5 4 4 3 3 2 3 3 2 2 1 1 2 2 2 1 1 1 0 0 0 0 1 0 0 0 0 0 0 0 0 0 0 0
3 3 3 5 9 13 13 10 7 5 4 4 3 3 3 3 3 3 2 2 1 2 2 2 1 1 0 0 0 0 0 0 0 0 0 0 0 0 0 0 0 0 0
3 4 5 7 10 13 12 9 6 5 5 4 4 4 4 4 3 3 3 2 2 2 1 1 1 1 1 1 0 0 0 0 0 0 0 0 0 0 0 0 0 0 1
3 4 5 7 8 9 9 7 6 6 5 5 5 5 5 6 5 4 3 2 2 2 1 1 1 1 1 1 0 0 0 0 0 0 0 0 0 0 0 0 0 1 1
3 4 5 6 6 7 7 7 6 6 6 6 6 6 7 7 6 5 3 2 2 2 1 1 1 1 1 0 0 0 0 0 0 0 0 0 0 0 0 0 0 1 1
Wind_Speed
6 5 6 7 6 6 6 7 6 5 4 3 2 2 2 1 1 2 3 3 2 2 2 2 1 1 1 1 1 1 0 1 0 0 2 2 2 1 1 1 2 2 3
4 5 6 7 7 7 7 7 7 6 6 4 3 2 2 2 2 2 2 3 3 3 3 2 2 2 1 1 1 1 1 0 0 1 0 2 3 2 1 1 1 2 2
8 7 7 8 7 8 9 8 8 7 6 5 3 2 1 1 0 1 1 2 2 2 2 2 2 2 2 2 2 2 2 1 0 1 2 1 1 2 2 1 1 1 1
8 7 7 7 8 9 7 7 6 6 5 5 4 4 3 3 3 2 2 2 1 2 2 2 2 2 2 2 2 2 2 2 1 1 1 2 2 1 2 2 2 2 1
8 8 8 8 7 7 7 6 5 5 5 5 6 4 3 3 1 1 1 1 1 1 1 2 2 2 2 3 2 2 2 2 2 2 1 1 1 2 2 2 3 2 2
7 6 6 5 5 5 5 5 5 5 5 5 5 5 5 4 2 2 1 1 1 1 1 1 1 2 2 2 2 2 2 2 2 2 1 2 2 2 2 3 3 2 2
6 6 6 7 6 7 6 5 5 5 4 5 5 5 5 4 4 3 2 1 1 1 1 1 1 1 2 2 2 1 1 2 2 2 2 2 2 2 2 2 2 2 2
6 7 8 8 8 7 7 6 6 5 4 4 4 3 3 3 2 2 2 2 2 2 1 1 1 1 1 1 1 1 2 1 2 2 2 2 2 2 2 2 2 1 2
6 6 6 7 7 7 7 8 7 5 5 5 4 3 3 3 3 2 2 1 1 1 1 1 1 1 1 1 1 1 1 1 1 1 1 1 1 1 1 2 2 2 2
5 5 5 6 6 6 6 6 6 6 5 4 4 3 3 3 3 2 2 1 1 1 1 1 1 1 1 1 1 1 1 1 1 1 0 1 1 1 1 1 2 2 3
4 4 4 4 4 4 5 5 5 5 4 5 4 3 3 3 2 2 2 1 1 1 1 1 1 1 1 1 1 1 1 1 0 1 0 1 1 0 1 1 1 1 2
4 4 4 4 4 5 5 5 5 6 5 5 4 3 3 2 2 2 2 1 1 1 1 1 1 1 1 1 1 1 1 1 1 1 0 1 1 1 1 1 1 1 2
3 3 4 4 4 4 5 5 5 5 5 4 4 3 2 2 3 2 2 2 1 1 1 1 0 0 1 1 1 1 1 1 1 1 1 2 1 2 2 1 1 1 1
4 4 4 4 4 4 4 5 5 4 4 4 4 4 4 3 3 2 2 2 2 1 1 1 1 1 0 1 1 1 0 0 1 1 1 2 2 2 2 2 2 1 1
4 5 6 5 5 4 4 4 4 4 4 4 4 4 3 3 2 2 2 2 2 2 2 1 1 1 1 0 0 1 1 0 1 1 1 1 1 1 2 1 1 1 1
6 6 5 5 5 6 6 5 5 4 5 5 5 4 4 3 3 3 2 2 2 1 1 1 1 1 0 0 1 1 1 1 1 1 2 2 2 2 2 2 2 1 2
6 6 6 6 6 6 6 6 6 5 5 5 4 4 4 4 4 3 2 2 2 2 1 1 1 1 1 1 1 2 1 1 1 1 2 2 2 2 2 3 3 3 3
5 5 5 5 5 4 5 5 5 5 5 4 4 4 4 4 4 3 3 3 2 2 2 2 1 1 1 1 1 1 1 1 2 2 2 2 2 2 2 2 3 3 3
5 5 5 5 5 5 5 5 5 5 5 5 4 4 5 4 4 4 3 3 2 2 1 1 2 2 2 2 2 2 1 1 2 2 2 2 2 3 2 2 3 4 4
2 3 3 3 4 4 5 6 5 5 5 5 4 4 4 4 4 4 3 2 2 2 2 1 2 2 2 2 2 3 2 1 1 2 2 2 2 3 2 2 2 3 4
2 2 3 3 4 4 6 6 5 5 5 4 4 3 4 4 4 3 3 2 2 2 1 1 1 2 2 2 2 3 2 2 2 2 2 2 3 3 3 2 3 4 4
1 2 3 3 3 4 6 5 5 4 3 4 3 3 3 3 3 3 2 2 3 2 2 1 1 1 1 1 2 3 3 3 2 2 2 2 3 4 4 3 3 4 3
1 2 3 2 2 3 5 5 5 4 4 4 3 2 2 2 3 4 3 2 2 2 2 2 2 2 1 1 2 2 3 2 1 1 2 3 3 3 2 3 3 3 2
1 1 2 2 1 2 3 4 3 4 5 4 3 2 2 2 2 2 3 3 3 3 2 3 2 2 2 2 1 1 1 1 1 1 1 2 2 2 3 3 3 2 2
2 2 2 2 1 1 1 1 2 3 3 3 2 2 2 2 1 1 1 3 3 4 5 4 3 3 3 4 4 3 2 1 1 0 0 1 1 2 2 2 2 2 1
2 2 2 2 1 1 1 1 2 4 4 3 2 2 2 2 2 2 0 1 2 3 4 5 4 3 4 4 3 3 2 2 1 1 1 1 1 2 2 2 2 2 2
Wind_Direction
215 190 188 185 180 180 181 185 187 184 166 158 167 174 212 220 231 233 232 240 239 227 210 228 218 190 199 224 225 206 258 304 271 30 335 330 329 313 266 247 236 234 231
202 191 188 187 185 186 188 188 192 187 183 177 167 170 183 209 217 233 241 242 237 225 214 204 207 194 197 217 210 178 178 275 130 141 61 345 347 346 340 305 249 249 228
203 199 194 194 189 194 197 196 196 193 191 176 144 127 96 21 291 249 242 243 234 228 224 210 199 201 194 214 222 198 189 215 247 168 162 164 254 305 324 319 309 288 258
198 194 191 192 196 203 198 193 190 191 189 173 170 174 188 216 227 228 242 257 243 236 224 217 207 207 207 220 233 212 202 198 228 213 201 196 188 204 307 318 311 299 279
195 193 192 192 191 190 187 184 179 187 185 179 180 181 205 219 221 212 239 265 292 264 234 220 214 211 213 218 220 215 209 210 219 209 195 188 192 200 203 283 308 318 294
194 195 190 182 180 172 169 170 174 190 188 181 182 185 196 195 188 215 223 251 268 279 272 225 228 220 214 220 218 210 203 215 219 211 197 186 190 198 194 230 264 284 286
187 188 182 183 181 172 170 167 172 191 190 179 182 186 189 186 191 199 205 214 244 265 275 233 236 239 233 228 215 203 216 216 216 219 219 214 221 202 187 202 238 265 288
191 194 193 188 185 178 171 167 174 181 174 171 178 179 178 183 195 199 194 199 218 238 256 225 234 248 249 238 199 199 225 214 220 229 222 224 236 209 199 197 198 250 288
193 193 189 187 183 178 177 175 176 172 171 174 166 160 170 178 187 187 185 205 232 237 244 235 240 251 242 234 194 198 230 213 231 240 234 236 261 228 219 210 206 204 249
190 185 182 186 182 180 178 171 169 174 171 171 172 174 183 187 182 171 184 206 233 248 234 237 226 249 259 244 199 210 208 172 245 239 234 282 288 300 266 230 227 213 211
187 176 168 166 168 169 170 168 167 166 170 177 180 180 186 188 179 177 191 195 204 216 230 230 221 229 236 216 187 206 172 174 293 334 292 285 296 297 306 278 252 235 218
176 164 159 153 165 176 176 175 177 180 189 187 179 181 185 173 172 186 202 197 193 198 210 212 209 230 229 207 186 215 186 185 230 270 299 297 283 284 280 263 264 257 237
155 145 151 168 180 181 174 178 184 191 191 179 174 169 174 183 192 202 199 183 176 166 143 122 132 216 207 192 197 203 211 207 224 243 250 269 273 281 275 261 261 268 267
166 164 174 187 187 183 182 181 185 185 174 166 168 175 187 196 198 192 187 184 175 165 179 175 166 146 171 199 192 179 176 264 290 276 254 257 247 258 264 261 259 257 263
194 192 189 189 187 182 182 181 178 172 168 165 174 191 191 181 179 183 187 185 179 181 178 160 169 166 157 187 143 164 160 211 319 327 310 294 293 284 265 275 265 255 251
207 204 194 186 189 187 181 175 173 175 168 172 182 182 171 170 188 195 185 176 177 152 138 162 195 190 230 42 174 171 177 199 254 301 309 307 320 320 320 306 290 254 246
210 201 198 197 199 194 183 180 179 172 169 174 177 178 172 180 192 192 173 181 184 161 170 194 191 211 231 192 192 193 166 205 251 271 291 302 319 327 323 332 328 313 281
214 211 206 203 203 195 179 168 160 164 168 173 181 182 176 183 185 178 184 190 184 177 194 209 210 221 272 268 233 208 184 229 256 259 260 268 287 296 308 316 319 306 294
212 209 205 204 193 185 172 157 160 165 170 181 188 189 185 185 183 187 195 191 182 184 205 216 207 208 256 246 222 183 189 231 270 276 274 262 273 289 294 291 298 305 304
201 193 174 166 174 180 160 156 168 172 189 195 194 187 183 183 188 192 188 188 180 187 190 220 231 228 252 251 226 190 181 217 274 293 292 279 275 294 298 269 267 282 295
180 152 145 168 184 170 153 162 172 192 197 180 172 174 177 179 180 179 171 166 168 161 181 223 254 249 257 260 234 202 197 208 237 270 287 293 295 297 298 273 253 260 279
150 146 150 177 173 159 154 167 190 193 161 156 164 171 170 169 159 154 156 156 160 170 195 217 261 279 279 269 255 233 226 216 213 242 268 285 295 298 299 292 284 285 287
164 165 155 155 157 161 162 178 197 168 156 155 161 168 167 170 167 165 171 170 174 184 195 204 228 260 271 278 275 242 234 226 218 242 261 278 290 301 304 302 299 298 286
87 88 116 135 168 171 174 190 184 163 161 164 165 163 173 186 179 169 175 173 186 192 198 210 221 237 248 254 250 243 242 252 266 278 297 308 312 306 295 304 307 291 274
91 100 124 150 195 168 178 188 166 154 161 159 154 168 174 171 166 156 189 199 208 205 200 211 207 209 233 244 224 210 219 224 228 248 326 332 325 322 321 315 306 298 288
113 120 130 146 175 169 190 183 161 159 158 164 175 190 188 182 177 168 160 341 231 224 218 211 206 219 222 215 212 219 223 229 201 158 227 264 275 279 289 296 306 309 302